sat.trackr.live / text

‹ back to catalog

STARLINK-4476

NORAD 53419 · 2022-097AH

PAYLOAD ACTIVE UNKNOWN

§ Identity

Operator
Country
US
Launch date
2022-08-10
Launch site
AFETR
Launch vehicle
Mass (kg)
RCS (m²)

Purposes: comms

External: N2YO · Heavens-Above · Gunter

§ Orbital elements

Epoch: 2026-09-19T17:56:06.180000Z

Period
93.85 min
Inclination
53.1603°
Eccentricity
0.0001233
Mean motion
15.34392662 rev/d
Perigee alt
461.9 km
Apogee alt
463.6 km
Semi-major
6,840.9 km
B*
2.9443e-5
RAAN
311.5738°
Arg perigee
75.3779°
Mean anomaly
284.7360°
Rev number
22,807

§ Raw data

STARLINK-44761 53419U 22097AH  26262.74729375  .00000618  00000+0  29443-4 0  99942 53419  53.1603 311.5738 0001233  75.3779 284.7360 15.34392662228077

JSON: /api/v1/satellites/53419 · /tle

For live sub-satellite position, see the globe view (requires WebGL).

§ Visibility from observer

Set your observer location to see the next 7 days of passes ≥ 10°. The values pass through the URL so the page stays shareable.

No JS? Fill the form by hand. The geolocation button needs JavaScript.